Weather History for KHYS - July, 2013

Change the Weather History Date:

Monday, July 8, 2013

  Actual Average Record
Temperature  
Mean Temperature 86 °F -  
Max Temperature 102 °F 89 °F 102 °F (2001)
Min Temperature 71 °F 63 °F 62 °F (1996)
Cooling Degree Days 22    
Growing Degree Days 36 (Base 50)    
Moisture  
Dew Point 60 °F    
Average Humidity 44    
Maximum Humidity 83    
Minimum Humidity 22    
Precipitation  
Precipitation 0.00 in - - ()
Sea Level Pressure  
Sea Level Pressure 29.96 in    
Wind  
Wind Speed 11 mph (SSE)    
Max Wind Speed 25 mph    
Max Gust Speed 38 mph    
Visibility 10 miles    
Events      
Averages and records for this station are not official NWS values.
T = Trace of Precipitation, MM = Missing Value Source: NWS Daily Summary

Daily Weather History Graph

Daily Weather History Graph

Search for Another Location

Airport or City:

Trip Planner

Search our weather history database for the weather conditions in past years. The results will help you decide how hot, cold, wet, or windy it might be!

Date:

Astronomy

Jul. 08, 2013 Rise Set
Actual Time 6:19 AM CDT 9:04 PM CDT
Civil Twilight 5:48 AM CDT 9:36 PM CDT
Nautical Twilight 5:08 AM CDT 10:15 PM CDT
Astronomical Twilight 4:23 AM CDT 11:00 PM CDT
Moon 6:49 AM CDT (7/8) 9:09 PM CDT (7/8)
Length of Visible Light 15h 47m
Length of Day
14h 44m
New Moon, 0% of the Moon is Illuminated
Jul 8
New Moon
Jul 15
First Quarter
Jul 22
Full
Jul 29
Last Quarter
Aug 6
New

Hourly Weather History & Observations

Time (CDT) Temp. Heat Index Dew Point Humidity Pressure Visibility Wind Dir Wind Speed Gust Speed Precip Events Conditions
12:15 AM 84.2 °F 84.4 °F 60.8 °F 45% 29.98 in 10.0 mi SSE 8.1 mph - N/A   Scattered Clouds
12:35 AM 82.4 °F 82.9 °F 60.8 °F 48% 29.99 in 10.0 mi SE 5.8 mph - N/A   Overcast
12:55 AM 80.6 °F 81.8 °F 62.6 °F 54% 30.00 in 10.0 mi SE 4.6 mph - N/A   Overcast
1:15 AM 80.6 °F 81.5 °F 60.8 °F 51% 30.00 in 10.0 mi ESE 4.6 mph - N/A   Mostly Cloudy
1:35 AM 80.6 °F 81.5 °F 60.8 °F 51% 30.01 in 10.0 mi ESE 8.1 mph - N/A   Mostly Cloudy
1:55 AM 80.6 °F 81.8 °F 62.6 °F 54% 30.01 in 10.0 mi ESE 6.9 mph - N/A   Overcast
2:15 AM 78.8 °F - 62.6 °F 57% 30.01 in 10.0 mi SE 8.1 mph - N/A   Overcast
2:35 AM 78.8 °F - 62.6 °F 57% 30.03 in 10.0 mi South 5.8 mph - N/A   Overcast
2:55 AM 78.8 °F - 62.6 °F 57% 30.03 in 10.0 mi South 8.1 mph - N/A   Mostly Cloudy
3:15 AM 75.2 °F - 62.6 °F 65% 30.03 in 10.0 mi West 11.5 mph - N/A   Scattered Clouds
3:35 AM 73.4 °F - 64.4 °F 73% 30.02 in 10.0 mi WNW 6.9 mph - N/A   Mostly Cloudy
3:55 AM 73.4 °F - 64.4 °F 73% 30.03 in 10.0 mi SW 4.6 mph - N/A   Partly Cloudy
4:15 AM 73.4 °F - 64.4 °F 73% 30.01 in 10.0 mi Calm Calm - N/A   Scattered Clouds
4:35 AM 73.4 °F - 64.4 °F 73% 30.01 in 10.0 mi West 4.6 mph - N/A   Scattered Clouds
4:55 AM 73.4 °F - 64.4 °F 73% 30.00 in 10.0 mi West 5.8 mph - N/A   Partly Cloudy
5:15 AM 73.4 °F - 64.4 °F 73% 30.00 in 10.0 mi SSW 5.8 mph - N/A   Partly Cloudy
5:35 AM 71.6 °F - 66.2 °F 83% 30.00 in 10.0 mi South 9.2 mph - N/A   Clear
5:55 AM 71.6 °F - 66.2 °F 83% 29.99 in 10.0 mi SSE 8.1 mph - N/A   Partly Cloudy
6:15 AM 73.4 °F - 62.6 °F 69% 29.99 in 10.0 mi SSE 11.5 mph - N/A   Partly Cloudy
6:35 AM 73.4 °F - 62.6 °F 69% 29.98 in 10.0 mi South 12.7 mph - N/A   Clear
6:55 AM 75.2 °F - 60.8 °F 61% 29.98 in 10.0 mi South 10.4 mph - N/A   Clear
7:15 AM 75.2 °F - 60.8 °F 61% 29.99 in 10.0 mi SSE 9.2 mph - N/A   Scattered Clouds
7:35 AM 75.2 °F - 60.8 °F 61% 29.99 in 10.0 mi SSE 6.9 mph - N/A   Mostly Cloudy
7:55 AM 75.2 °F - 60.8 °F 61% 29.99 in 10.0 mi SE 6.9 mph - N/A   Partly Cloudy
8:15 AM 75.2 °F - 60.8 °F 61% 30.00 in 10.0 mi SSE 4.6 mph - N/A   Mostly Cloudy
8:35 AM 75.2 °F - 60.8 °F 61% 30.01 in 10.0 mi SSE 9.2 mph - N/A   Mostly Cloudy
8:55 AM 75.2 °F - 62.6 °F 65% 30.01 in 10.0 mi SSE 8.1 mph - N/A   Scattered Clouds
9:15 AM 77.0 °F - 62.6 °F 61% 30.01 in 10.0 mi SSE 8.1 mph - N/A   Clear
9:35 AM 78.8 °F - 62.6 °F 57% 30.02 in 10.0 mi SSE 9.2 mph - N/A   Clear
9:55 AM 80.6 °F 81.8 °F 62.6 °F 54% 30.01 in 10.0 mi SSE 12.7 mph - N/A   Partly Cloudy
10:15 AM 80.6 °F 81.8 °F 62.6 °F 54% 30.02 in 10.0 mi South 11.5 mph - N/A   Partly Cloudy
10:35 AM 80.6 °F 81.8 °F 62.6 °F 54% 30.01 in 10.0 mi SSE 11.5 mph - N/A   Clear
10:55 AM 84.2 °F 85.0 °F 62.6 °F 48% 30.00 in 10.0 mi South 11.5 mph - N/A   Clear
11:15 AM 87.8 °F 88.5 °F 62.6 °F 43% 30.00 in 10.0 mi South 15.0 mph - N/A   Clear
11:35 AM 91.4 °F 92.1 °F 62.6 °F 38% 29.99 in 10.0 mi South 13.8 mph - N/A   Clear
11:55 AM 91.4 °F 92.1 °F 62.6 °F 38% 29.99 in 10.0 mi ESE 17.3 mph - N/A   Clear
12:15 PM 93.2 °F 94.1 °F 62.6 °F 36% 29.98 in 10.0 mi South 15.0 mph 23.0 mph N/A   Clear
12:35 PM 95.0 °F 95.2 °F 60.8 °F 32% 29.97 in 10.0 mi South 17.3 mph 23.0 mph N/A   Clear
12:55 PM 96.8 °F 97.1 °F 60.8 °F 30% 29.97 in 10.0 mi South 17.3 mph - N/A   Clear
1:15 PM 98.6 °F 99.4 °F 60.8 °F 29% 29.96 in 10.0 mi SSW 16.1 mph 24.2 mph N/A   Clear
1:35 PM 98.6 °F 99.4 °F 60.8 °F 29% 29.95 in 10.0 mi SSW 17.3 mph 25.3 mph N/A   Partly Cloudy
1:55 PM 100.4 °F 101.3 °F 60.8 °F 27% 29.95 in 10.0 mi South 21.9 mph - N/A   Partly Cloudy
2:15 PM 100.4 °F 100.2 °F 59.0 °F 25% 29.94 in 10.0 mi South 17.3 mph 26.5 mph N/A   Clear
2:35 PM 100.4 °F 99.7 °F 57.2 °F 24% 29.94 in 10.0 mi South 21.9 mph 26.5 mph N/A   Clear
2:55 PM 102.2 °F 101.4 °F 57.2 °F 22% 29.93 in 10.0 mi SW 20.7 mph 38.0 mph N/A   Partly Cloudy
3:15 PM 100.4 °F 99.7 °F 57.2 °F 24% 29.92 in 10.0 mi SSW 20.7 mph 27.6 mph N/A   Partly Cloudy
3:35 PM 102.2 °F 101.4 °F 57.2 °F 22% 29.92 in 10.0 mi South 23.0 mph 31.1 mph N/A   Scattered Clouds
3:55 PM 100.4 °F 99.7 °F 57.2 °F 24% 29.92 in 10.0 mi SSE 17.3 mph 25.3 mph N/A   Partly Cloudy
4:15 PM 100.4 °F 99.7 °F 57.2 °F 24% 29.91 in 10.0 mi South 23.0 mph 29.9 mph N/A   Partly Cloudy
4:35 PM 102.2 °F 101.4 °F 57.2 °F 22% 29.91 in 10.0 mi South 20.7 mph 29.9 mph N/A   Scattered Clouds
4:55 PM 102.2 °F 101.4 °F 57.2 °F 22% 29.90 in 10.0 mi South 24.2 mph 29.9 mph N/A   Scattered Clouds
5:15 PM 102.2 °F 101.4 °F 57.2 °F 22% 29.90 in 10.0 mi SSE 25.3 mph 31.1 mph N/A   Scattered Clouds
5:35 PM 100.4 °F 99.7 °F 57.2 °F 24% 29.90 in 10.0 mi SE 21.9 mph 28.8 mph N/A   Partly Cloudy
5:55 PM 100.4 °F 99.7 °F 57.2 °F 24% 29.89 in 10.0 mi SE 25.3 mph 31.1 mph N/A   Clear
6:15 PM 100.4 °F 99.7 °F 57.2 °F 24% 29.88 in 10.0 mi SE 24.2 mph 27.6 mph N/A   Clear
6:35 PM 100.4 °F 99.7 °F 57.2 °F 24% 29.88 in 10.0 mi South 19.6 mph 29.9 mph N/A   Clear
6:55 PM 100.4 °F 98.8 °F 55.4 °F 22% 29.88 in 10.0 mi SE 18.4 mph 26.5 mph N/A   Clear
7:15 PM 98.6 °F 97.6 °F 57.2 °F 25% 29.88 in 10.0 mi SSE 25.3 mph 28.8 mph N/A   Clear
7:35 PM 98.6 °F 97.2 °F 55.4 °F 24% 29.88 in 10.0 mi ENE 20.7 mph 31.1 mph N/A   Clear
7:55 PM 96.8 °F 95.1 °F 55.4 °F 25% 29.88 in 10.0 mi ENE 21.9 mph 27.6 mph N/A   Clear
8:15 PM 96.8 °F 95.8 °F 57.2 °F 27% 29.89 in 10.0 mi NE 18.4 mph 27.6 mph N/A   Clear
8:35 PM 93.2 °F 91.3 °F 55.4 °F 28% 29.89 in 10.0 mi North - - N/A   Clear
8:55 PM 93.2 °F 91.3 °F 55.4 °F 28% 29.90 in 10.0 mi North - - N/A   Clear
9:15 PM 91.4 °F 89.4 °F 55.4 °F 29% 29.90 in 10.0 mi North - - N/A   Clear
9:35 PM 91.4 °F 89.4 °F 55.4 °F 29% 29.91 in 10.0 mi North - - N/A   Clear
9:55 PM 89.6 °F 87.7 °F 55.4 °F 31% 29.91 in 10.0 mi North - - N/A   Clear
10:15 PM 89.6 °F 87.7 °F 55.4 °F 31% 29.93 in 10.0 mi North - - N/A   Clear
10:35 PM 87.8 °F 86.5 °F 57.2 °F 35% 29.93 in 10.0 mi North - - N/A   Clear
10:55 PM 87.8 °F 86.5 °F 57.2 °F 35% 29.93 in 10.0 mi North - - N/A   Clear
11:15 PM 87.8 °F 86.5 °F 57.2 °F 35% 29.92 in 10.0 mi East 16.1 mph - N/A   Clear
11:35 PM 86.0 °F 84.9 °F 57.2 °F 37% 29.93 in 10.0 mi North - - N/A   Clear
11:55 PM 86.0 °F 84.9 °F 57.2 °F 37% 29.93 in 10.0 mi North - - N/A   Clear